timestamp,surface_pressure_avg,surface_temp_avg,battery_voltage,lat,long
2018-02-12 00:00:00+00:00,277.2131,0.9,12.25,47.84626,-54.09684
2018-02-12 00:10:00+00:00,271.9948,0.8,12.25,47.84626,-54.09684
2018-02-12 00:20:00+00:00,267.6381,0.8,12.33,47.84626,-54.09684
2018-02-12 00:30:00+00:00,265.8147,0.8,12.33,47.84626,-54.09684
2018-02-12 00:40:00+00:00,263.7081,0.79,12.33,47.84626,-54.09684
2018-02-12 00:50:00+00:00,258.0248,0.8,12.33,47.84626,-54.09684
2018-02-12 01:00:00+00:00,255.2797,0.79,12.25,47.84626,-54.09684
2018-02-12 01:10:00+00:00,250.6164,0.79,12.25,47.84626,-54.09684
2018-02-12 01:20:00+00:00,242.8981,0.78,12.33,47.84626,-54.09684
2018-02-12 01:30:00+00:00,239.5198,0.88,12.33,47.84626,-54.09684
2018-02-12 01:40:00+00:00,237.1381,0.9,12.33,47.84626,-54.09684
2018-02-12 01:50:00+00:00,234.6631,1.08,12.33,47.84626,-54.09684
2018-02-12 02:00:00+00:00,230.5414,1.07,12.25,47.84626,-54.09684
2018-02-12 02:10:00+00:00,228.9064,0.8,12.25,47.84626,-54.09684
2018-02-12 02:20:00+00:00,229.3515,1.02,12.33,47.84626,-54.09684
2018-02-12 02:30:00+00:00,228.0982,1.1,12.33,47.84626,-54.09684
2018-02-12 02:40:00+00:00,222.3247,1.0,12.33,47.84626,-54.09684
2018-02-12 02:50:00+00:00,219.6797,1.0,12.33,47.84626,-54.09684
2018-02-12 03:00:00+00:00,219.0298,0.95,12.25,47.84626,-54.09684
2018-02-12 03:10:00+00:00,217.0598,0.91,12.25,47.84626,-54.09684
2018-02-12 03:20:00+00:00,218.1531,0.9,12.33,47.84626,-54.09684
2018-02-12 03:30:00+00:00,224.8065,0.9,12.33,47.84626,-54.09684
2018-02-12 03:40:00+00:00,227.8348,0.93,12.33,47.84626,-54.09684
2018-02-12 03:50:00+00:00,226.8798,0.99,12.33,47.84626,-54.09684
2018-02-12 04:00:00+00:00,228.4898,1.08,12.25,47.84626,-54.09684
2018-02-12 04:10:00+00:00,234.4265,1.15,12.25,47.84626,-54.09684
2018-02-12 04:20:00+00:00,238.5264,1.19,12.33,47.84626,-54.09684
2018-02-12 04:30:00+00:00,240.7581,1.19,12.33,47.84626,-54.09684
2018-02-12 04:40:00+00:00,239.0764,1.2,12.33,47.84626,-54.09684
2018-02-12 04:50:00+00:00,243.9547,1.2,12.33,47.84626,-54.09684
2018-02-12 05:00:00+00:00,248.5664,1.2,12.25,47.84626,-54.09684
2018-02-12 05:10:00+00:00,247.9182,1.2,12.25,47.84626,-54.09684
2018-02-12 05:20:00+00:00,244.0615,1.2,12.33,47.84626,-54.09684
2018-02-12 05:30:00+00:00,246.9448,1.2,12.33,47.84626,-54.09684
2018-02-12 05:40:00+00:00,249.7647,1.2,12.33,47.84626,-54.09684
2018-02-12 05:50:00+00:00,254.0631,1.2,12.33,47.84626,-54.09684
2018-02-12 06:00:00+00:00,261.8348,1.2,12.25,47.84626,-54.09684
2018-02-12 06:10:00+00:00,270.8197,1.2,12.25,47.84626,-54.09684
2018-02-12 06:20:00+00:00,272.9431,1.2,12.33,47.84626,-54.09684
2018-02-12 06:30:00+00:00,279.6331,1.2,12.33,47.84626,-54.09684
2018-02-12 06:40:00+00:00,291.1697,1.2,12.33,47.84626,-54.09684
2018-02-12 06:50:00+00:00,301.3713,1.2,12.33,47.84626,-54.09684
2018-02-12 07:00:00+00:00,298.783,1.2,12.25,47.84626,-54.09684
2018-02-12 07:10:00+00:00,298.8164,1.2,12.25,47.84626,-54.09684
2018-02-12 07:20:00+00:00,303.9297,1.2,12.33,47.84626,-54.09684
2018-02-12 07:30:00+00:00,310.483,1.22,12.33,47.84626,-54.09684
2018-02-12 07:40:00+00:00,306.803,1.29,12.33,47.84626,-54.09684
2018-02-12 07:50:00+00:00,309.483,1.3,12.33,47.84626,-54.09684
2018-02-12 08:00:00+00:00,322.6313,1.3,12.25,47.84626,-54.09684
2018-02-12 08:10:00+00:00,329.9664,1.3,12.25,47.84626,-54.09684
2018-02-12 08:20:00+00:00,330.5447,1.3,12.33,47.84626,-54.09684
2018-02-12 08:30:00+00:00,331.0147,1.3,12.33,47.84626,-54.09684
2018-02-12 08:40:00+00:00,336.7663,1.3,12.33,47.84626,-54.09684
2018-02-12 08:50:00+00:00,344.6663,1.3,12.33,47.84626,-54.09684
2018-02-12 09:00:00+00:00,348.3195,1.3,12.25,47.84626,-54.09684
2018-02-12 09:10:00+00:00,343.9645,1.3,12.25,47.84626,-54.09684
2018-02-12 09:20:00+00:00,340.7397,1.3,12.33,47.84626,-54.09684
2018-02-12 09:30:00+00:00,346.1279,1.3,12.33,47.84626,-54.09684
2018-02-12 09:40:00+00:00,344.188,1.3,12.33,47.84626,-54.09684
2018-02-12 09:50:00+00:00,338.8896,1.3,12.33,47.84626,-54.09684
2018-02-12 10:00:00+00:00,345.6946,1.3,12.25,47.84626,-54.09684
2018-02-12 10:10:00+00:00,351.1412,1.3,12.25,47.84626,-54.09684
2018-02-12 10:20:00+00:00,344.3179,1.3,12.33,47.84626,-54.09684
2018-02-12 10:30:00+00:00,336.6097,1.3,12.33,47.84626,-54.09684
2018-02-12 10:40:00+00:00,343.323,1.3,12.33,47.84626,-54.09684
2018-02-12 10:50:00+00:00,342.9396,1.3,12.33,47.84626,-54.09684
2018-02-12 11:00:00+00:00,324.8597,1.3,12.25,47.84626,-54.09684
2018-02-12 11:10:00+00:00,330.6729,1.3,12.25,47.84626,-54.09684
2018-02-12 11:20:00+00:00,339.8546,1.3,12.33,47.84626,-54.09684
2018-02-12 11:30:00+00:00,328.0463,1.3,12.33,47.84626,-54.09684
2018-02-12 11:40:00+00:00,311.5096,1.3,12.33,47.84626,-54.09684
2018-02-12 11:50:00+00:00,309.113,1.3,12.33,47.84626,-54.09684
2018-02-12 12:00:00+00:00,309.9197,1.3,12.25,47.84626,-54.09684
2018-02-12 12:10:00+00:00,300.1263,1.3,12.25,47.84626,-54.09684
2018-02-12 12:20:00+00:00,296.7214,1.29,12.33,47.84626,-54.09684
2018-02-12 12:30:00+00:00,295.4597,1.3,12.33,47.84626,-54.09684
2018-02-12 12:40:00+00:00,289.5947,1.3,12.33,47.84626,-54.09684
2018-02-12 12:50:00+00:00,281.8647,1.33,12.33,47.84626,-54.09684
2018-02-12 13:00:00+00:00,286.2814,1.33,12.25,47.84626,-54.09684
2018-02-12 13:10:00+00:00,280.8264,1.3,12.25,47.84626,-54.09684
2018-02-12 13:20:00+00:00,272.9031,1.3,12.33,47.84626,-54.09684
2018-02-12 13:30:00+00:00,281.1664,1.3,12.33,47.84626,-54.09684
2018-02-12 13:40:00+00:00,278.8181,1.3,12.33,47.84626,-54.09684
2018-02-12 13:50:00+00:00,260.2031,1.3,12.33,47.84626,-54.09684
2018-02-12 14:00:00+00:00,255.4147,1.3,12.33,47.84626,-54.09684
2018-02-12 14:10:00+00:00,264.1897,1.3,12.25,47.84626,-54.09684
2018-02-12 14:20:00+00:00,252.6797,1.3,12.33,47.84626,-54.09684
2018-02-12 14:30:00+00:00,237.7081,1.3,12.33,47.84626,-54.09684
2018-02-12 14:40:00+00:00,241.7097,1.3,12.41,47.84626,-54.09684
2018-02-12 14:50:00+00:00,240.5981,1.3,12.41,47.84626,-54.09684
2018-02-12 15:00:00+00:00,221.2498,1.3,12.33,47.84626,-54.09684
2018-02-12 15:10:00+00:00,211.9665,1.3,12.33,47.84626,-54.09684
2018-02-12 15:20:00+00:00,218.2664,1.3,12.33,47.84626,-54.09684
2018-02-12 15:30:00+00:00,218.4798,1.3,12.33,47.84626,-54.09684
2018-02-12 15:40:00+00:00,207.6015,1.3,12.41,47.84626,-54.09684
2018-02-12 15:50:00+00:00,200.7548,1.3,12.41,47.84626,-54.09684
2018-02-12 16:00:00+00:00,204.5765,1.3,12.33,47.84626,-54.09684
2018-02-12 16:10:00+00:00,206.0398,1.3,12.33,47.84626,-54.09684
2018-02-12 16:20:00+00:00,201.3548,1.3,12.33,47.84626,-54.09684
2018-02-12 16:30:00+00:00,202.2382,1.3,12.33,47.84626,-54.09684
2018-02-12 16:40:00+00:00,205.2415,1.3,12.41,47.84626,-54.09684
2018-02-12 16:50:00+00:00,199.7398,1.3,12.41,47.84626,-54.09684
2018-02-12 17:00:00+00:00,195.6815,1.3,12.33,47.84626,-54.09684
2018-02-12 17:10:00+00:00,204.0231,1.3,12.33,47.84626,-54.09684
2018-02-12 17:20:00+00:00,206.5031,1.3,12.33,47.84626,-54.09684
2018-02-12 17:30:00+00:00,200.9348,1.3,12.33,47.84626,-54.09684
2018-02-12 17:40:00+00:00,201.4631,1.3,12.41,47.84626,-54.09684
2018-02-12 17:50:00+00:00,211.8681,1.3,12.41,47.84626,-54.09684
2018-02-12 18:00:00+00:00,219.9415,1.3,12.33,47.84626,-54.09684
2018-02-12 18:10:00+00:00,217.3531,1.3,12.33,47.84626,-54.09684
2018-02-12 18:20:00+00:00,225.5465,1.3,12.33,47.84626,-54.09684
2018-02-12 18:30:00+00:00,234.6664,1.3,12.33,47.84626,-54.09684
2018-02-12 18:40:00+00:00,228.2664,1.3,12.33,47.84626,-54.09684
2018-02-12 18:50:00+00:00,223.8648,1.3,12.41,47.84626,-54.09684
2018-02-12 19:00:00+00:00,234.3397,1.3,12.33,47.84626,-54.09684
2018-02-12 19:10:00+00:00,240.9081,1.3,12.25,47.84626,-54.09684
2018-02-12 19:20:00+00:00,240.588,1.3,12.33,47.84626,-54.09684
2018-02-12 19:30:00+00:00,240.8231,1.3,12.33,47.84626,-54.09684
2018-02-12 19:40:00+00:00,255.2831,1.3,12.33,47.84626,-54.09684
2018-02-12 19:50:00+00:00,265.503,1.3,12.33,47.84626,-54.09684
2018-02-12 20:00:00+00:00,265.6614,1.3,12.25,47.84626,-54.09684
2018-02-12 20:10:00+00:00,269.0997,1.3,12.25,47.84626,-54.09684
2018-02-12 20:20:00+00:00,287.7547,1.3,12.33,47.84626,-54.09684
2018-02-12 20:30:00+00:00,292.463,1.3,12.33,47.84626,-54.09684
2018-02-12 20:40:00+00:00,285.613,1.3,12.33,47.84626,-54.09684
2018-02-12 20:50:00+00:00,284.6248,1.3,12.33,47.84626,-54.09684
2018-02-12 21:00:00+00:00,293.0997,1.3,12.25,47.84626,-54.09684
2018-02-12 21:10:00+00:00,292.6263,1.3,12.25,47.84626,-54.09684
2018-02-12 21:20:00+00:00,297.2897,1.3,12.33,47.84626,-54.09684
2018-02-12 21:30:00+00:00,300.263,1.3,12.33,47.84626,-54.09684
2018-02-12 21:40:00+00:00,308.838,1.3,12.33,47.84626,-54.09684
2018-02-12 21:50:00+00:00,305.508,1.3,12.33,47.84626,-54.09684
2018-02-12 22:00:00+00:00,299.2047,1.3,12.25,47.84626,-54.09684
2018-02-12 22:10:00+00:00,289.8247,1.3,12.25,47.84626,-54.09684
2018-02-12 22:20:00+00:00,297.713,1.3,12.33,47.84626,-54.09684
2018-02-12 22:30:00+00:00,300.5197,1.3,12.33,47.84626,-54.09684
2018-02-12 22:40:00+00:00,297.028,1.3,12.33,47.84626,-54.09684
2018-02-12 22:50:00+00:00,288.3314,1.3,12.33,47.84626,-54.09684
2018-02-12 23:00:00+00:00,292.2597,1.17,12.25,47.84626,-54.09684
2018-02-12 23:10:00+00:00,289.4847,1.18,12.25,47.84626,-54.09684
2018-02-12 23:20:00+00:00,286.2747,1.2,12.33,47.84626,-54.09684
2018-02-12 23:30:00+00:00,278.0563,1.25,12.33,47.84626,-54.09684
2018-02-12 23:40:00+00:00,278.6746,1.3,12.33,47.84626,-54.09684
2018-02-12 23:50:00+00:00,281.1047,1.3,12.33,47.84626,-54.09684
